TimeCDT,TemperatureF,Dew PointF,Humidity,Sea Level PressureIn,VisibilityMPH,Wind Direction,Wind SpeedMPH,Gust SpeedMPH,PrecipitationIn,Events,Conditions,WindDirDegrees,DateUTC
12:53 AM,64.0,55.0,73,29.92,10.0,SW,5.8,-,N/A,,Partly Cloudy,220,2012-10-03 05:53:00
1:53 AM,63.0,55.0,75,29.93,10.0,Calm,Calm,-,N/A,,Partly Cloudy,0,2012-10-03 06:53:00
2:53 AM,63.0,55.9,78,29.93,10.0,SSW,5.8,-,N/A,,Clear,210,2012-10-03 07:53:00
3:53 AM,63.0,55.9,78,29.92,10.0,SSW,4.6,-,N/A,,Clear,200,2012-10-03 08:53:00
4:53 AM,60.1,55.0,83,29.93,10.0,Calm,Calm,-,N/A,,Partly Cloudy,0,2012-10-03 09:53:00
5:53 AM,61.0,54.0,78,29.94,10.0,Calm,Calm,-,N/A,,Clear,0,2012-10-03 10:53:00
6:53 AM,60.1,54.0,80,29.94,10.0,Calm,Calm,-,N/A,,Partly Cloudy,0,2012-10-03 11:53:00
7:53 AM,61.0,54.0,78,29.96,10.0,Calm,Calm,-,N/A,,Scattered Clouds,0,2012-10-03 12:53:00
8:53 AM,64.9,55.9,73,29.97,10.0,SSE,3.5,-,N/A,,Partly Cloudy,150,2012-10-03 13:53:00
9:53 AM,71.1,55.0,57,29.99,10.0,SSW,10.4,-,N/A,,Clear,200,2012-10-03 14:53:00
10:53 AM,77.0,53.1,43,29.99,10.0,South,11.5,-,N/A,,Clear,190,2012-10-03 15:53:00
11:53 AM,79.0,51.1,38,29.98,10.0,SSW,13.8,-,N/A,,Partly Cloudy,200,2012-10-03 16:53:00
12:53 PM,81.0,48.0,31,29.97,10.0,SSW,12.7,21.9,N/A,,Partly Cloudy,200,2012-10-03 17:53:00
1:53 PM,82.9,46.9,28,29.94,10.0,South,10.4,19.6,N/A,,Partly Cloudy,190,2012-10-03 18:53:00
2:53 PM,84.0,45.0,25,29.92,10.0,South,15.0,-,N/A,,Clear,180,2012-10-03 19:53:00
3:53 PM,82.9,46.0,27,29.91,10.0,South,11.5,20.7,N/A,,Clear,170,2012-10-03 20:53:00
4:53 PM,84.0,46.0,26,29.91,10.0,South,11.5,-,N/A,,Clear,170,2012-10-03 21:53:00
5:53 PM,82.0,46.9,29,29.91,10.0,SSE,13.8,-,N/A,,Clear,160,2012-10-03 22:53:00
6:53 PM,79.0,48.0,34,29.92,10.0,South,13.8,-,N/A,,Clear,170,2012-10-03 23:53:00
7:53 PM,75.9,46.9,36,29.94,10.0,SSE,9.2,-,N/A,,Clear,160,2012-10-04 00:53:00
8:53 PM,72.0,50.0,46,29.96,10.0,SSE,8.1,-,N/A,,Clear,160,2012-10-04 01:53:00
9:53 PM,71.1,51.1,49,29.98,10.0,SSE,6.9,-,N/A,,Clear,160,2012-10-04 02:53:00
10:53 PM,69.1,52.0,54,29.98,10.0,SE,8.1,-,N/A,,Clear,140,2012-10-04 03:53:00
11:53 PM,68.0,53.1,59,29.99,10.0,SSE,6.9,-,N/A,,Clear,150,2012-10-04 04:53:00